DL2GFH-3 Weather Reports


time (UTC)temp
C
wind
direction
speed
KPH
gust
KPH
rain 1hr
cm
rain 24hr
cm
rain mn
cm
humidity
%
barometer
mb
20260502163237 22 0 0.0 0.0 0.00 0.00 0.00 26 1017.4
20260502161732 22 0 0.0 0.0 0.00 0.00 0.00 26 1017.6
20260502160226 23 0 0.0 0.0 0.00 0.00 0.00 26 1017.8
20260502151710 23 0 0.0 0.0 0.00 0.00 0.00 25 1018.1
20260502150205 23 0 0.0 0.0 0.00 0.00 0.00 25 1018.3
20260502130121 24 0 0.0 0.0 0.00 0.00 0.00 22 1019.7
20260502123110 25 0 0.0 0.0 0.00 0.00 0.00 21 1020.1
20260502121605 25 0 0.0 0.0 0.00 0.00 0.00 21 1020.2
20260502114554 26 0 0.0 0.0 0.00 0.00 0.00 20 1020.6
20260502113049 26 0 0.0 0.0 0.00 0.00 0.00 20 1020.8
20260502111543 26 0 0.0 0.0 0.00 0.00 0.00 19 1020.9
20260502104533 26 0 0.0 0.0 0.00 0.00 0.00 19 1021.1
20260502103027 26 0 0.0 0.0 0.00 0.00 0.00 19 1021.3
20260502101522 26 0 0.0 0.0 0.00 0.00 0.00 19 1021.5
20260502091500 26 0 0.0 0.0 0.00 0.00 0.00 18 1022.0
20260502071417 25 0 0.0 0.0 0.00 0.00 0.00 19 1022.4
20260502065911 23 0 0.0 0.0 0.00 0.00 0.00 20 1022.5
20260502064406 23 0 0.0 0.0 0.00 0.00 0.00 20 1022.5
20260502062900 21 0 0.0 0.0 0.00 0.00 0.00 23 1022.7
20260502061355 21 0 0.0 0.0 0.00 0.00 0.00 23 1022.7
20260502055850 20 0 0.0 0.0 0.00 0.00 0.00 24 1022.7
20260502054344 18 0 0.0 0.0 0.00 0.00 0.00 25 1022.9
20260502052839 18 0 0.0 0.0 0.00 0.00 0.00 26 1022.9
20260502051333 17 0 0.0 0.0 0.00 0.00 0.00 26 1022.9
20260502045828 17 0 0.0 0.0 0.00 0.00 0.00 27 1022.8
20260502044323 17 0 0.0 0.0 0.00 0.00 0.00 26 1022.8
20260502042817 18 0 0.0 0.0 0.00 0.00 0.00 25 1022.7
20260502041312 20 0 0.0 0.0 0.00 0.00 0.00 23 1022.7
20260502035806 21 0 0.0 0.0 0.00 0.00 0.00 21 1022.6
20260502034301 20 0 0.0 0.0 0.00 0.00 0.00 24 1022.6
20260502032755 15 0 0.0 0.0 0.00 0.00 0.00 29 1022.8
20260502031250 15 0 0.0 0.0 0.00 0.00 0.00 29 1022.9
20260502025745 15 0 0.0 0.0 0.00 0.00 0.00 29 1023.0
20260502024239 15 0 0.0 0.0 0.00 0.00 0.00 29 1022.9
20260502022734 16 0 0.0 0.0 0.00 0.00 0.00 29 1023.0
20260502021228 16 0 0.0 0.0 0.00 0.00 0.00 29 1023.0
20260502015723 16 0 0.0 0.0 0.00 0.00 0.00 29 1023.0
20260502014218 16 0 0.0 0.0 0.00 0.00 0.00 29 1023.1
20260502012712 16 0 0.0 0.0 0.00 0.00 0.00 29 1023.2
20260502011207 16 0 0.0 0.0 0.00 0.00 0.00 29 1023.1
20260502005701 16 0 0.0 0.0 0.00 0.00 0.00 29 1023.2
20260502004156 16 0 0.0 0.0 0.00 0.00 0.00 28 1023.3
20260502002650 16 0 0.0 0.0 0.00 0.00 0.00 28 1023.4
20260502001145 16 0 0.0 0.0 0.00 0.00 0.00 28 1023.4
20260501235640 17 0 0.0 0.0 0.00 0.00 0.00 28 1023.4
20260501234134 17 0 0.0 0.0 0.00 0.00 0.00 28 1023.5
20260501232629 17 0 0.0 0.0 0.00 0.00 0.00 28 1023.5
20260501231123 17 0 0.0 0.0 0.00 0.00 0.00 28 1023.5
20260501225618 17 0 0.0 0.0 0.00 0.00 0.00 28 1023.5
20260501224113 17 0 0.0 0.0 0.00 0.00 0.00 28 1023.5
20260501222607 17 0 0.0 0.0 0.00 0.00 0.00 28 1023.4
20260501221102 17 0 0.0 0.0 0.00 0.00 0.00 28 1023.4
20260501215556 17 0 0.0 0.0 0.00 0.00 0.00 28 1023.4
20260501214051 17 0 0.0 0.0 0.00 0.00 0.00 27 1023.4
20260501212546 18 0 0.0 0.0 0.00 0.00 0.00 27 1023.5
20260501211040 18 0 0.0 0.0 0.00 0.00 0.00 27 1023.5
20260501205535 18 0 0.0 0.0 0.00 0.00 0.00 27 1023.4
20260501204029 18 0 0.0 0.0 0.00 0.00 0.00 27 1023.5
20260501202524 18 0 0.0 0.0 0.00 0.00 0.00 27 1023.5
20260501201018 18 0 0.0 0.0 0.00 0.00 0.00 27 1023.4
20260501195513 18 0 0.0 0.0 0.00 0.00 0.00 26 1023.3
20260501194008 19 0 0.0 0.0 0.00 0.00 0.00 26 1023.2
20260501192502 19 0 0.0 0.0 0.00 0.00 0.00 26 1023.1
20260501190957 19 0 0.0 0.0 0.00 0.00 0.00 26 1023.0
20260501185451 20 0 0.0 0.0 0.00 0.00 0.00 25 1022.9
20260501183946 20 0 0.0 0.0 0.00 0.00 0.00 25 1022.8
20260501182441 20 0 0.0 0.0 0.00 0.00 0.00 25 1022.7
20260501180935 20 0 0.0 0.0 0.00 0.00 0.00 25 1022.5
20260501175430 20 0 0.0 0.0 0.00 0.00 0.00 24 1022.6
20260501173924 20 0 0.0 0.0 0.00 0.00 0.00 24 1022.5
20260501172419 21 0 0.0 0.0 0.00 0.00 0.00 24 1022.5
20260501170913 21 0 0.0 0.0 0.00 0.00 0.00 23 1022.5
20260501165408 21 0 0.0 0.0 0.00 0.00 0.00 23 1022.4
20260501163903 22 0 0.0 0.0 0.00 0.00 0.00 22 1022.5